Terminal Aerodrome Forecast
Issued by NWS

Home | Current Version | Previous Version | Text Only | Print | Product List | Glossary Off
Versions: 1 2 3 4 5 6 7 8 9 10 11 12 13 14

000
FTUS43 KFGF 291400 AAA
TAFBJI
TAF AMD
KBJI 291458Z 2915/3012 31019G25KT P6SM OVC011
      TEMPO 2915/2917 3SM -SN
     FM291700 32017KT P6SM BKN015
     FM292100 32015KT P6SM BKN040
     FM300000 34007KT P6SM SCT250=

USA.gov is the U.S. government's official web portal to all federal, state and local government web resources and services.